Total_Precipitation_Accumulation
1.26 1.51 1.36 0.95 0.87 0.76 0.66 0.71 0.60 0.41 0.39 0.53 0.54 0.45 0.34 0.32 0.38 0.46 0.50 0.57 0.55 0.62 0.68 0.75 0.86 1.04 1.24 1.30 1.34 1.49 1.55 1.71 1.93 2.17 2.34 2.37 2.42 2.36 2.31 2.22 2.16 2.11 2.14 2.16
1.39 1.24 0.72 0.54 0.62 0.73 0.78 0.86 0.67 0.46 0.38 0.57 0.57 0.48 0.35 0.35 0.40 0.47 0.48 0.56 0.59 0.61 0.70 0.80 0.90 1.04 1.29 1.36 1.36 1.49 1.61 1.71 1.76 1.89 2.07 2.18 2.32 2.38 2.35 2.26 2.25 2.15 2.07 2.04
1.08 0.73 0.43 0.62 0.79 0.94 0.87 0.78 0.64 0.58 0.54 0.63 0.71 0.68 0.42 0.38 0.36 0.43 0.48 0.56 0.66 0.70 0.73 0.79 0.89 1.02 1.29 1.45 1.46 1.49 1.57 1.72 1.79 1.90 2.12 2.26 2.47 2.56 2.59 2.41 2.27 2.21 2.17 2.05
0.79 0.48 0.47 0.74 0.87 0.97 0.92 0.53 0.55 0.63 0.95 1.07 0.90 1.05 0.53 0.39 0.37 0.43 0.51 0.54 0.68 0.73 0.74 0.80 0.82 0.95 1.15 1.33 1.46 1.53 1.64 1.75 1.78 1.96 2.15 2.17 2.33 2.39 2.33 2.22 2.15 2.10 2.13 2.11
0.92 0.54 0.54 0.70 0.64 0.72 0.76 0.49 0.62 0.78 1.07 1.25 0.92 1.02 0.59 0.34 0.42 0.44 0.50 0.53 0.62 0.72 0.70 0.78 0.81 0.81 0.95 1.12 1.33 1.49 1.68 1.83 1.85 1.89 2.07 2.13 2.09 2.17 2.27 2.32 2.26 2.18 2.14 2.10
0.72 0.51 0.59 0.54 0.42 0.53 0.70 0.81 1.00 1.16 1.68 1.95 0.81 0.78 0.63 0.53 0.62 0.52 0.49 0.55 0.64 0.71 0.75 0.77 0.76 0.76 0.88 1.04 1.22 1.40 1.59 1.75 1.86 1.84 1.94 2.10 2.07 2.05 2.16 2.34 2.39 2.30 2.21 2.14
0.90 0.66 0.56 0.50 0.67 0.83 1.10 1.69 2.52 2.67 2.64 1.60 0.46 0.61 0.72 0.55 0.54 0.62 0.61 0.63 0.66 0.69 0.77 0.82 0.71 0.75 0.81 0.93 1.11 1.28 1.50 1.60 1.72 1.77 1.82 1.88 2.01 2.00 1.99 2.03 2.13 2.28 2.24 2.12
1.06 0.90 0.65 0.57 0.76 1.08 1.19 1.50 2.05 2.02 1.37 0.64 0.37 0.60 0.65 0.46 0.41 0.43 0.48 0.59 0.63 0.66 0.71 0.76 0.73 0.75 0.79 0.83 0.96 1.14 1.27 1.47 1.64 1.73 1.75 1.77 1.84 1.97 1.91 1.90 1.86 1.98 2.05 1.93
1.09 0.77 0.47 0.43 0.45 0.70 1.08 1.19 1.07 1.47 1.04 0.72 0.58 0.53 0.44 0.24 0.25 0.31 0.38 0.51 0.66 0.73 0.76 0.74 0.74 0.77 0.76 0.83 0.90 1.05 1.14 1.30 1.52 1.70 1.75 1.75 1.78 1.84 1.85 1.82 1.81 1.82 1.84 1.86
1.22 0.98 0.47 0.41 0.55 0.73 0.85 1.04 1.31 1.89 1.60 0.92 0.58 0.54 0.62 0.43 0.42 0.38 0.43 0.53 0.67 0.77 0.84 0.81 0.77 0.83 0.82 0.84 0.90 0.96 1.10 1.20 1.36 1.58 1.77 1.78 1.73 1.71 1.78 1.84 1.87 1.83 1.79 1.82
1.18 1.27 0.79 0.65 0.89 0.96 0.96 1.29 1.60 1.70 1.33 1.10 0.75 0.72 0.73 0.64 0.61 0.55 0.53 0.58 0.69 0.79 0.87 0.82 0.75 0.77 0.82 0.84 0.93 0.98 1.07 1.17 1.29 1.40 1.58 1.71 1.72 1.72 1.76 1.79 1.76 1.80 1.79 1.79
1.13 1.48 1.04 0.60 0.55 0.56 0.82 1.13 1.41 1.76 1.28 0.84 0.79 0.75 0.57 0.53 0.57 0.53 0.52 0.54 0.60 0.71 0.77 0.78 0.71 0.72 0.78 0.87 0.94 1.03 1.07 1.07 1.17 1.29 1.41 1.55 1.66 1.70 1.74 1.71 1.71 1.76 1.78 1.76
1.63 2.11 1.76 1.14 0.91 0.83 0.95 0.88 0.99 1.26 1.27 0.86 0.74 0.64 0.39 0.35 0.37 0.39 0.46 0.51 0.54 0.65 0.74 0.78 0.78 0.75 0.78 0.86 0.94 1.01 1.08 1.02 1.05 1.24 1.36 1.49 1.59 1.60 1.62 1.58 1.63 1.79 1.87 1.84
2.05 2.19 1.53 1.22 0.99 0.93 0.85 0.66 0.68 1.17 1.47 0.81 0.48 0.45 0.32 0.29 0.32 0.36 0.46 0.51 0.54 0.59 0.67 0.76 0.87 0.83 0.77 0.81 0.87 0.89 1.00 1.05 1.05 1.11 1.27 1.40 1.51 1.48 1.46 1.47 1.49 1.61 1.77 1.85
1.80 1.83 0.83 0.45 0.37 0.46 0.54 0.48 0.52 0.74 0.74 0.67 0.40 0.37 0.38 0.38 0.43 0.45 0.49 0.49 0.49 0.51 0.59 0.75 0.86 0.86 0.87 0.88 0.90 0.87 0.89 1.02 1.09 1.06 1.15 1.23 1.35 1.44 1.41 1.39 1.44 1.55 1.65 1.67
1.65 1.66 0.86 0.47 0.27 0.35 0.44 0.36 0.36 0.41 0.37 0.35 0.27 0.31 0.34 0.35 0.35 0.37 0.38 0.43 0.48 0.49 0.54 0.62 0.71 0.79 0.90 0.97 0.99 0.96 0.92 0.97 1.07 1.05 1.09 1.14 1.27 1.41 1.41 1.35 1.41 1.56 1.68 1.66
1.64 1.66 1.46 0.83 0.33 0.60 0.69 0.43 0.38 0.40 0.39 0.36 0.40 0.40 0.33 0.31 0.34 0.41 0.42 0.44 0.48 0.49 0.50 0.52 0.63 0.77 0.87 0.96 0.98 0.99 0.96 0.99 1.06 1.06 1.08 1.14 1.26 1.34 1.38 1.37 1.41 1.53 1.65 1.67
1.38 1.60 1.98 1.36 0.91 1.21 0.64 0.32 0.32 0.36 0.40 0.39 0.38 0.33 0.33 0.38 0.41 0.46 0.46 0.50 0.51 0.52 0.54 0.54 0.62 0.74 0.78 0.86 0.91 0.94 0.90 1.02 1.09 1.08 1.08 1.14 1.23 1.26 1.35 1.39 1.42 1.55 1.62 1.59
0.79 1.51 2.23 1.84 1.28 0.65 0.35 0.31 0.42 0.51 0.52 0.40 0.32 0.26 0.25 0.30 0.37 0.45 0.41 0.46 0.52 0.53 0.58 0.59 0.63 0.71 0.71 0.78 0.85 0.90 0.86 0.95 1.03 1.07 1.03 1.08 1.17 1.22 1.30 1.35 1.42 1.52 1.62 1.58
0.83 1.50 2.44 2.04 1.47 0.70 0.43 0.28 0.32 0.47 0.66 0.38 0.30 0.30 0.28 0.34 0.53 0.54 0.46 0.44 0.45 0.45 0.50 0.59 0.61 0.64 0.67 0.72 0.77 0.81 0.86 0.89 0.97 1.03 0.95 1.01 1.09 1.16 1.25 1.30 1.36 1.44 1.48 1.51
1.29 2.02 2.30 1.66 1.35 0.54 0.33 0.27 0.34 0.74 0.82 0.42 0.37 0.38 0.39 0.51 0.61 0.54 0.49 0.49 0.49 0.49 0.50 0.54 0.56 0.60 0.66 0.70 0.71 0.75 0.84 0.91 0.94 1.01 0.95 0.99 1.03 1.10 1.20 1.30 1.29 1.37 1.43 1.45
0.95 1.34 1.34 1.24 1.41 0.71 0.35 0.41 0.72 0.85 0.49 0.39 0.38 0.37 0.41 0.41 0.39 0.38 0.42 0.49 0.57 0.55 0.51 0.53 0.55 0.59 0.62 0.65 0.69 0.71 0.77 0.85 0.92 0.97 0.97 1.03 1.08 1.10 1.15 1.25 1.25 1.27 1.38 1.45
0.70 0.93 1.05 1.01 0.85 0.55 0.46 0.57 0.61 0.52 0.45 0.37 0.37 0.37 0.40 0.38 0.37 0.40 0.44 0.49 0.57 0.60 0.57 0.56 0.59 0.58 0.60 0.64 0.70 0.76 0.79 0.81 0.91 0.96 0.97 1.03 1.12 1.15 1.17 1.20 1.22 1.25 1.32 1.41
0.58 0.57 0.73 0.68 0.49 0.37 0.36 0.37 0.36 0.34 0.36 0.34 0.34 0.37 0.40 0.40 0.38 0.43 0.46 0.50 0.54 0.57 0.61 0.62 0.65 0.63 0.64 0.66 0.72 0.80 0.83 0.82 0.89 0.94 0.96 1.02 1.08 1.14 1.18 1.16 1.11 1.13 1.23 1.36
0.48 0.52 0.59 0.53 0.36 0.34 0.31 0.30 0.30 0.27 0.25 0.25 0.26 0.28 0.32 0.36 0.38 0.44 0.47 0.51 0.57 0.60 0.64 0.65 0.68 0.70 0.71 0.70 0.75 0.81 0.84 0.84 0.88 0.87 0.87 0.94 0.98 1.08 1.18 1.18 1.13 1.12 1.13 1.32
0.34 0.44 0.56 0.51 0.38 0.44 0.35 0.28 0.28 0.27 0.25 0.26 0.27 0.25 0.25 0.30 0.37 0.41 0.44 0.48 0.57 0.63 0.65 0.66 0.68 0.71 0.77 0.76 0.78 0.82 0.85 0.83 0.84 0.86 0.84 0.87 0.92 0.98 1.07 1.12 1.17 1.30 1.28 1.31